FW0871 Weather Reports


time (UTC)temp
C
wind
direction
speed
KPH
gust
KPH
rain 1hr
cm
rain 24hr
cm
rain mn
cm
humidity
%
barometer
mb
20260507124606 9 304 6.4 14.5 0.00 1.83 0.00 84 1006.9
20260507123055 8 288 9.7 14.5 0.00 1.83 1.83 85 1006.7
20260507121557 8 321 9.7 19.3 0.00 1.83 1.83 86 1006.8
20260507120050 8 301 8.0 17.7 0.00 1.83 1.83 88 1006.6
20260507114553 8 323 4.8 8.0 0.00 1.83 1.83 94 1006.6
20260507113050 8 292 0.0 0.0 0.00 1.83 1.83 97 1006.6
20260507111557 8 293 0.0 1.6 0.00 1.83 1.83 98 1007.0
20260507110043 8 293 0.0 0.0 0.00 1.83 1.83 98 1006.7
20260507104541 -17 0.0 0.0 0.00 1.83 1.83 1007.1
20260507103037 -17 0.0 0.0 0.00 1.83 1.83 1007.2
20260507101532 -17 0.0 0.0 0.00 1.83 1.83 1006.6
20260507100025 -17 0.0 0.0 0.03 1.83 1.83 1006.1
20260507094524 -17 0.0 0.0 0.03 1.83 1.83 1006.2
20260507093017 -17 0.0 0.0 0.03 1.83 1.83 1005.7
20260507091513 -17 314 3.2 14.5 0.03 1.83 1.83 1006.3
20260507090113 8 314 4.8 16.1 0.00 1.80 1.80 96 1006.2
20260507084601 8 307 4.8 11.3 0.00 1.80 1.80 96 1006.3
20260507083057 8 323 4.8 11.3 0.00 1.80 1.80 97 1005.8
20260507081555 9 305 6.4 14.5 0.00 1.80 1.80 97 1005.9
20260507080054 9 279 8.0 16.1 0.00 1.80 1.80 98 1005.9
20260507074558 9 311 6.4 16.1 0.00 1.80 1.80 99 1005.9
20260507073052 9 300 8.0 11.3 0.00 1.80 1.80 99 1005.6
20260507071552 9 312 6.4 9.7 0.00 1.80 1.80 100 1005.0
20260507070055 9 304 4.8 9.7 0.00 1.80 1.80 100 1004.7
20260507064607 9 298 6.4 9.7 0.03 1.80 1.80 100 1004.8
20260507063056 9 297 8.0 16.1 0.03 1.80 1.80 99 1004.7
20260507061553 10 311 12.9 20.9 0.05 1.80 1.80 100 1004.7
20260507060059 10 307 8.0 12.9 0.05 1.80 1.80 100 1004.6
20260507054607 10 321 9.7 14.5 0.08 1.78 1.78 100 1004.6
20260507053056 10 300 9.7 16.1 0.25 1.78 1.78 100 1004.6
20260507051556 10 288 8.0 9.7 0.41 1.75 1.75 100 1004.6
20260507050054 10 316 8.0 12.9 0.43 1.75 1.75 100 1004.6
20260507044554 10 302 12.9 29.0 0.38 1.70 1.70 100 1004.7
20260507043058 10 274 0.0 14.5 0.20 1.52 1.52 100 1004.2
20260507041600 10 154 3.2 12.9 0.03 1.35 1.35 100 1004.1
20260507040054 10 141 6.4 12.9 0.00 1.32 1.32 100 1004.3
20260507034549 10 127 9.7 19.3 0.00 1.32 1.32 100 1004.2
20260507033045 9 141 9.7 17.7 0.00 1.32 1.32 100 1004.4
20260507031543 9 150 3.2 9.7 0.00 1.32 1.32 100 1004.5
20260507030042 9 179 4.8 14.5 0.00 1.32 1.32 100 1004.4
20260507024540 9 212 8.0 20.9 0.00 1.32 1.32 100 1004.6
20260507023008 9 219 9.7 25.7 0.00 1.32 1.32 100 1004.8
20260507021506 10 140 9.7 27.4 0.03 1.32 1.32 100 1004.9
20260507020002 10 211 9.7 29.0 0.08 1.32 1.32 100 1005.1
20260507014609 10 255 12.9 29.0 0.10 1.32 1.32 100 1005.3
20260507013115 10 137 12.9 30.6 0.13 1.32 1.32 100 1005.5
20260507011559 10 165 14.5 27.4 0.13 1.30 1.30 100 1005.5
20260507010033 10 148 14.5 25.7 0.10 1.24 1.24 100 1005.5
20260507004528 10 158 14.5 33.8 0.08 1.22 1.22 100 1005.7
20260507003056 10 168 19.3 32.2 0.08 1.19 1.19 100 1005.8
20260507001612 10 143 16.1 45.1 0.10 1.17 1.17 100 1005.6
20260507000049 10 150 16.1 29.0 0.10 1.14 1.14 100 1005.7
20260506234546 10 153 14.5 29.0 0.23 1.14 1.14 100 1006.0
20260506233047 10 143 19.3 41.8 0.30 1.12 1.12 100 1006.3
20260506231547 11 150 12.9 33.8 0.38 1.07 1.07 99 1006.3
20260506230040 11 145 17.7 32.2 0.46 1.02 1.02 99 1006.3
20260506224537 11 127 17.7 37.0 0.46 0.91 0.91 99 1006.5
20260506223036 11 143 20.9 37.0 0.46 0.79 0.79 99 1006.8
20260506221535 11 163 19.3 38.6 0.43 0.69 0.69 99 1006.7
20260506220029 11 203 17.7 37.0 0.33 0.56 0.56 98 1007.1
20260506214524 11 203 17.7 40.2 0.28 0.46 0.46 98 1007.2
20260506213022 11 136 14.5 30.6 0.13 0.30 0.30 97 1007.4
20260506211520 11 150 12.9 32.2 0.08 0.23 0.23 97 1007.5
20260506210018 11 154 11.3 38.6 0.13 0.23 0.23 97 1007.3
20260506204517 11 141 11.3 19.3 0.13 0.18 0.18 97 1007.4
20260506203018 11 144 9.7 20.9 0.18 0.18 0.18 97 1007.8
20260506201514 11 155 14.5 30.6 0.13 0.13 0.13 96 1007.7
20260506200019 11 121 14.5 43.5 0.10 0.10 0.10 96 1007.7
20260506194511 11 142 9.7 22.5 0.05 0.05 0.05 95 1007.8
20260506193009 11 154 14.5 27.4 0.00 0.00 0.00 93 1007.8
20260506193007 11 129 14.5 27.4 0.00 0.00 0.00 93 1007.8
20260506191507 12 138 16.1 35.4 0.00 0.00 0.00 92 1007.5
20260506190006 12 154 19.3 35.4 0.00 0.00 0.00 92 1007.3
20260506184531 11 151 16.1 30.6 0.00 0.00 0.00 93 1007.7
20260506183031 11 171 16.1 29.0 0.00 0.00 0.00 93 1007.9
20260506181531 11 231 12.9 32.2 0.00 0.00 0.00 93 1007.9
20260506180033 11 181 16.1 32.2 0.00 0.00 0.00 94 1008.2
20260506174527 11 145 14.5 24.1 0.00 0.00 0.00 94 1008.2
20260506173020 11 136 12.9 24.1 0.00 0.00 0.00 94 1008.4
20260506171528 11 144 9.7 24.1 0.00 0.00 0.00 94 1008.5
20260506170013 11 141 12.9 29.0 0.00 0.00 0.00 94 1009.0
20260506164509 11 225 12.9 27.4 0.00 0.00 0.00 93 1009.4
20260506163017 11 166 11.3 30.6 0.00 0.00 0.00 93 1009.4
20260506161510 11 140 11.3 25.7 0.00 0.00 0.00 94 1009.8
20260506160008 11 156 11.3 24.1 0.00 0.00 0.00 93 1009.9
20260506154503 11 173 11.3 29.0 0.00 0.00 0.00 94 1010.5
20260506153003 11 145 20.9 32.2 0.00 0.00 0.00 93 1010.0
20260506151559 11 189 19.3 33.8 0.00 0.00 0.00 94 1009.9
20260506150101 11 143 14.5 35.4 0.00 0.00 0.00 94 1009.7
20260506144554 11 109 12.9 27.4 0.00 0.00 0.00 94 1009.6
20260506143051 11 224 14.5 30.6 0.00 0.00 0.00 94 1010.0
20260506141550 11 217 6.4 22.5 0.00 0.00 0.00 94 1010.4
20260506140048 11 207 12.9 27.4 0.00 0.00 0.00 95 1010.4
20260506134610 11 160 9.7 29.0 0.00 0.00 0.00 95 1010.3
20260506133043 11 230 9.7 20.9 0.00 0.00 0.00 95 1010.3
20260506131555 11 169 8.0 22.5 0.00 0.00 0.00 95 1010.1
20260506130037 11 184 8.0 22.5 0.00 0.00 0.00 95 1010.0